• In Germany
  • List of Countries
  • For 7 days
  • Water Temperature
  • Satellite Maps
  • Weather Map
  • Weather Widgets
  • user-avatar
    Login

    Hourly Weather Gorlice

    Today, 20 June, Wednesday

    Time Temperature Precipitation Wind Pressure Humidity
    00:00 +16°C° 0 mm 1 mps 738 mmHg 89%
    01:00 +16°C° 0 mm 1 mps 738 mmHg 90%
    02:00 +16°C° 0 mm 1 mps 738 mmHg 91%
    03:00 +15°C° 0 mm 1 mps 738 mmHg 92%
    04:00 +15°C° 0 mm 1 mps 738 mmHg 93%
    05:00 +18°C° 0 mm 1 mps 738 mmHg 86%
    06:00 +20°C° 0 mm 1 mps 738 mmHg 80%
    07:00 +22°C° 0 mm 1 mps 739 mmHg 73%
    08:00 +23°C° 0 mm 1 mps 739 mmHg 68%
    09:00 +25°C° 0 mm 1 mps 739 mmHg 63%
    10:00 +26°C° 0 mm 2 mps 739 mmHg 58%
    11:00 +26°C° 0 mm 2 mps 738 mmHg 57%
    12:00 +27°C° 0 mm 2 mps 738 mmHg 57%
    13:00 +27°C° 0 mm 1 mps 738 mmHg 56%
    14:00 +27°C° 0 mm 1 mps 738 mmHg 56%
    15:00 +27°C° 0 mm 2 mps 738 mmHg 57%
    16:00 +27°C° 0 mm 2 mps 737 mmHg 58%
    17:00 +26°C° 0 mm 1 mps 737 mmHg 64%
    18:00 +25°C° 0 mm 1 mps 737 mmHg 71%
    19:00 +23°C° 0 mm 1 mps 737 mmHg 78%
    20:00 +22°C° 0 mm 1 mps 737 mmHg 81%
    21:00 +21°C° 0 mm 1 mps 737 mmHg 85%
    22:00 +20°C° 0 mm 1 mps 737 mmHg 89%
    23:00 +19°C° 0 mm 1 mps 736 mmHg 90%

    Tomorrow, 21 June, Thursday

    Time Temperature Precipitation Wind Pressure Humidity
    00:00 +19°C° 0 mm 1 mps 736 mmHg 91%
    01:00 +19°C° 0 mm 1 mps 736 mmHg 92%
    02:00 +19°C° 0 mm 1 mps 736 mmHg 92%
    03:00 +19°C° 0 mm 1 mps 735 mmHg 92%
    04:00 +19°C° 0 mm 1 mps 735 mmHg 92%
    05:00 +21°C° 0 mm 1 mps 735 mmHg 85%
    06:00 +23°C° 0 mm 1 mps 735 mmHg 78%
    07:00 +25°C° 0 mm 1 mps 735 mmHg 71%
    08:00 +26°C° 0.2 mm 1 mps 734 mmHg 67%
    09:00 +27°C° 0.2 mm 2 mps 734 mmHg 63%
    10:00 +29°C° 0.2 mm 2 mps 733 mmHg 59%
    11:00 +29°C° 0.6 mm 2 mps 733 mmHg 60%
    12:00 +29°C° 0.6 mm 3 mps 732 mmHg 62%
    13:00 +29°C° 0.6 mm 3 mps 731 mmHg 63%
    14:00 +29°C° 0.8 mm 3 mps 731 mmHg 66%
    15:00 +29°C° 0.8 mm 3 mps 730 mmHg 68%
    16:00 +28°C° 0.8 mm 3 mps 730 mmHg 71%
    17:00 +27°C° 0.3 mm 3 mps 729 mmHg 74%
    18:00 +26°C° 0.3 mm 3 mps 729 mmHg 77%
    19:00 +25°C° 0.3 mm 3 mps 728 mmHg 79%
    20:00 +24°C° 0.5 mm 3 mps 728 mmHg 82%
    21:00 +21°C° 0.5 mm 3 mps 728 mmHg 85%
    22:00 +20°C° 0.5 mm 3 mps 729 mmHg 88%
    23:00 +19°C° 1.1 mm 4 mps 729 mmHg 90%

    Day after tomorrow, 22 June, Friday

    Time Temperature Precipitation Wind Pressure Humidity
    00:00 +17°C° 1.1 mm 4 mps 729 mmHg 92%
    01:00 +15°C° 1.1 mm 5 mps 730 mmHg 94%
    02:00 +14°C° 0.5 mm 5 mps 730 mmHg 94%
    03:00 +13°C° 0.5 mm 4 mps 731 mmHg 93%
    04:00 +12°C° 0.5 mm 4 mps 731 mmHg 92%
    05:00 +12°C° 0 mm 4 mps 731 mmHg 87%
    06:00 +12°C° 0 mm 5 mps 732 mmHg 83%
    07:00 +12°C° 0 mm 5 mps 732 mmHg 78%
    08:00 +12°C° 0 mm 5 mps 732 mmHg 72%
    09:00 +13°C° 0 mm 5 mps 732 mmHg 65%
    10:00 +14°C° 0 mm 5 mps 732 mmHg 58%
    11:00 +15°C° 0 mm 5 mps 732 mmHg 54%
    12:00 +16°C° 0 mm 5 mps 732 mmHg 50%
    13:00 +17°C° 0 mm 5 mps 732 mmHg 46%
    14:00 +16°C° 0 mm 5 mps 732 mmHg 49%
    15:00 +16°C° 0 mm 5 mps 732 mmHg 51%
    16:00 +17°C° 0 mm 4 mps 732 mmHg 54%
    17:00 +15°C° 0 mm 4 mps 732 mmHg 59%
    18:00 +14°C° 0 mm 3 mps 733 mmHg 64%
    19:00 +13°C° 0 mm 3 mps 733 mmHg 70%
    20:00 +13°C° 0 mm 2 mps 733 mmHg 73%
    21:00 +10°C° 0 mm 2 mps 733 mmHg 76%
    22:00 +9°C° 0 mm 2 mps 734 mmHg 79%
    23:00 +9°C° 0 mm 2 mps 734 mmHg 80%

    23 June, Saturday

    Time Temperature Precipitation Wind Pressure Humidity
    00:00 +8°C° 0 mm 2 mps 734 mmHg 81%
    01:00 +8°C° 0 mm 2 mps 734 mmHg 83%
    02:00 +8°C° 0 mm 2 mps 734 mmHg 83%
    03:00 +8°C° 0 mm 2 mps 734 mmHg 84%
    04:00 +8°C° 0 mm 2 mps 734 mmHg 84%
    05:00 +10°C° 0 mm 3 mps 734 mmHg 78%
    06:00 +12°C° 0 mm 3 mps 734 mmHg 72%
    07:00 +14°C° 0 mm 3 mps 734 mmHg 66%
    08:00 +14°C° 0.4 mm 4 mps 734 mmHg 67%
    09:00 +15°C° 0.4 mm 4 mps 734 mmHg 67%
    10:00 +17°C° 0.4 mm 4 mps 734 mmHg 68%
    11:00 +17°C° 0.4 mm 4 mps 734 mmHg 68%
    12:00 +17°C° 0.4 mm 4 mps 734 mmHg 67%
    13:00 +17°C° 0.4 mm 4 mps 734 mmHg 67%
    14:00 +17°C° 0.3 mm 4 mps 733 mmHg 68%
    15:00 +17°C° 0.3 mm 4 mps 733 mmHg 68%
    16:00 +17°C° 0.3 mm 4 mps 733 mmHg 69%
    17:00 +16°C° 0.2 mm 3 mps 733 mmHg 73%
    18:00 +14°C° 0.2 mm 3 mps 734 mmHg 77%
    19:00 +14°C° 0.2 mm 2 mps 734 mmHg 81%
    20:00 +13°C° 0 mm 2 mps 734 mmHg 83%
    21:00 +12°C° 0 mm 2 mps 734 mmHg 85%
    22:00 +9°C° 0 mm 2 mps 734 mmHg 87%
    23:00 +9°C° 0 mm 2 mps 734 mmHg 88%

    24 June, Sunday

    Time Temperature Precipitation Wind Pressure Humidity
    00:00 +9°C° 0 mm 2 mps 734 mmHg 88%
    01:00 +8°C° 0 mm 2 mps 734 mmHg 88%
    02:00 +8°C° 0 mm 2 mps 734 mmHg 89%
    03:00 +8°C° 0 mm 2 mps 735 mmHg 89%
    04:00 +8°C° 0 mm 2 mps 735 mmHg 90%
    05:00 +9°C° 0 mm 2 mps 735 mmHg 86%
    06:00 +12°C° 0 mm 2 mps 735 mmHg 82%
    07:00 +13°C° 0 mm 3 mps 735 mmHg 79%
    08:00 +14°C° 0.1 mm 3 mps 735 mmHg 74%
    09:00 +17°C° 0.1 mm 3 mps 735 mmHg 68%
    10:00 +18°C° 0.1 mm 3 mps 735 mmHg 63%
    11:00 +18°C° 0.4 mm 3 mps 735 mmHg 63%
    12:00 +19°C° 0.4 mm 3 mps 735 mmHg 63%
    13:00 +19°C° 0.4 mm 3 mps 735 mmHg 63%
    14:00 +19°C° 0.4 mm 3 mps 735 mmHg 66%
    15:00 +18°C° 0.4 mm 3 mps 735 mmHg 69%
    16:00 +18°C° 0.4 mm 3 mps 735 mmHg 72%
    17:00 +17°C° 0.3 mm 2 mps 735 mmHg 77%
    18:00 +16°C° 0.3 mm 2 mps 735 mmHg 82%
    19:00 +15°C° 0.3 mm 1 mps 735 mmHg 86%
    20:00 +14°C° 0 mm 1 mps 735 mmHg 88%
    21:00 +13°C° 0 mm 1 mps 735 mmHg 90%
    22:00 +12°C° 0 mm 1 mps 735 mmHg 91%
    23:00 +11°C° 0 mm 1 mps 735 mmHg 92%

    25 June, Monday

    Time Temperature Precipitation Wind Pressure Humidity
    00:00 +11°C° 0 mm 1 mps 735 mmHg 93%
    01:00 +10°C° 0 mm 1 mps 735 mmHg 94%
    02:00 +10°C° 0 mm 1 mps 735 mmHg 94%
    03:00 +10°C° 0 mm 1 mps 735 mmHg 95%
    04:00 +10°C° 0 mm 1 mps 735 mmHg 95%
    05:00 +11°C° 0 mm 1 mps 736 mmHg 91%
    06:00 +13°C° 0 mm 2 mps 736 mmHg 87%
    07:00 +15°C° 0 mm 2 mps 736 mmHg 83%
    08:00 +16°C° 0 mm 2 mps 736 mmHg 75%
    09:00 +18°C° 0 mm 2 mps 736 mmHg 66%
    10:00 +20°C° 0 mm 2 mps 736 mmHg 58%
    11:00 +20°C° 0.1 mm 2 mps 735 mmHg 57%
    12:00 +21°C° 0.1 mm 2 mps 735 mmHg 55%
    13:00 +21°C° 0.1 mm 2 mps 735 mmHg 54%
    14:00 +21°C° 0.3 mm 2 mps 735 mmHg 57%
    15:00 +21°C° 0.3 mm 2 mps 734 mmHg 59%
    16:00 +21°C° 0.3 mm 2 mps 734 mmHg 61%
    17:00 +20°C° 0.1 mm 1 mps 734 mmHg 66%
    18:00 +19°C° 0.1 mm 1 mps 734 mmHg 71%
    19:00 +18°C° 0.1 mm 1 mps 734 mmHg 76%
    20:00 +16°C° 0 mm 1 mps 734 mmHg 79%
    21:00 +14°C° 0 mm 1 mps 734 mmHg 82%
    22:00 +13°C° 0 mm 1 mps 734 mmHg 84%
    23:00 +13°C° 0 mm 1 mps 734 mmHg 85%
    Show more